Torna al catalogo

LEMUR 2 ROUNDTRIPPER

AttivoScienzaSSO
NORAD 62711·PAYLOAD·🇺🇸 United States

Lanciato Jan 14, 2025 da Vandenberg Space Force Base

Loading…

Prossimi Passaggi (prossime 24 ore)

TLE

AggiornatoSource: Space-Track

Epoca: Sep 14, 2026, 11:39 UTC

1 62711U 25009DG  26257.48573392  .00006816  00000-0  48416-3 0  9993
2 62711  97.7203 340.0912 0003718 170.3824 189.7474 15.05027440 91053

Traccia LEMUR 2 ROUNDTRIPPER in tempo reale con AllMySat

Download on the App Store